This is the latest recevied weather packets stored in our database for station/object OM5ZU-10. If no packets are shown the sender has not sent any weather packets the latest 10 day(s).
| Time | Temp. | Humidity | Pressure | Rain* | Wind** | Luminosity | Snow |
|---|---|---|---|---|---|---|---|
| 1787933969 | 28.33° C | 38% | 1012.8 hPa | - | - | - | - |
| 1787933243 | 28.33° C | 38% | 1013.1 hPa | - | - | - | - |
| 1787932343 | 28.33° C | 38% | 1013 hPa | - | - | - | - |
| 1787931443 | 28.89° C | 37% | 1013.3 hPa | - | - | - | - |
| 1787930544 | 31.11° C | 35% | 1013.1 hPa | - | - | - | - |
| 1787929642 | 31.67° C | 36% | 1013.1 hPa | - | - | - | - |
| 1787928742 | 31.67° C | 35% | 1013.1 hPa | - | - | - | - |
| 1787927842 | 31.11° C | 36% | 1013.1 hPa | - | - | - | - |
| 1787926942 | 31.11° C | 35% | 1013.1 hPa | - | - | - | - |
| 1787926042 | 31.67° C | 35% | 1013.3 hPa | - | - | - | - |
| 1787925142 | 31.67° C | 35% | 1013.4 hPa | - | - | - | - |
| 1787924241 | 31.67° C | 35% | 1013.7 hPa | - | - | - | - |
| 1787923341 | 31.67° C | 35% | 1013.8 hPa | - | - | - | - |
| 1787922441 | 30.56° C | 36% | 1014.2 hPa | - | - | - | - |
| 1787921541 | 31.11° C | 35% | 1014.5 hPa | - | - | - | - |
| 1787920641 | 31.11° C | 35% | 1014.7 hPa | - | - | - | - |
| 1787919741 | 30.56° C | 37% | 1014.9 hPa | - | - | - | - |
| 1787918840 | 30° C | 38% | 1015.2 hPa | - | - | - | - |
| 1787917940 | 30° C | 38% | 1015.2 hPa | - | - | - | - |
| 1787917040 | 29.44° C | 38% | 1015.6 hPa | - | - | - | - |
| 1787916140 | 30° C | 39% | 1016 hPa | - | - | - | - |
| 1787915240 | 28.89° C | 38% | 1016.1 hPa | - | - | - | - |
| 1787914340 | 30° C | 38% | 1016.3 hPa | - | - | - | - |
| 1787913439 | 28.89° C | 40% | 1016.4 hPa | - | - | - | - |
| 1787912539 | 27.78° C | 40% | 1016.5 hPa | - | - | - | - |
* Rain since midnight (hover to see other rain measurements)
** Current wind speed in m/s (hover to see current wind gust speed)